Probability
0 0 0 0 0 0 0 0 0 0 0 0 0 0 0 0 0 0 0 0 0 0 0 0 0 0 0 0 0 0 0 0 0 0 0 0 0 0
0 0 0 0 0 0 0 0 0 0 0 0 0 0 0 0 0 0 0 0 0 0 0 0 0 0 0 0 0 0 0 0 0 0 0 0 0 0
0 0 0 0 0 0 0 0 0 0 0 0 0 0 0 0 0 0 0 0 0 0 0 0 0 0 0 0 0 0 0 0 0 0 0 0 0 0
0 0 0 0 0 0 0 0 0 0 0 0 0 0 0 0 0 0 0 0 0 0 0 0 0 0 0 0 0 0 0 0 0 0 0 0 0 0
0 0 0 0 0 0 0 0 0 0 0 0 0 0 0 0 0 0 0 0 0 0 0 0 0 0 0 0 0 0 0 0 0 0 0 0 0 0
0 0 0 0 0 0 0 0 0 0 0 0 0 0 0 0 0 0 0 0 0 0 0 0 0 0 0 0 0 0 0 0 0 0 0 0 0 0
0 0 0 0 0 0 0 0 0 0 0 0 0 0 0 0 0 0 0 0 0 0 0 0 0 0 0 0 0 0 0 0 0 0 0 0 0 0
0 0 0 0 0 0 0 0 0 0 0 0 0 0 0 0 0 0 0 0 0 0 0 0 0 0 0 0 0 0 0 0 0 0 0 0 0 0
0 0 0 0 0 0 0 0 0 0 0 0 0 0 0 0 0 0 0 0 0 0 0 0 0 0 0 0 0 0 0 0 0 0 0 0 0 0
0 0 0 0 0 0 0 0 0 0 0 0 0 0 0 0 0 0 0 0 0 0 0 0 0 0 0 0 0 0 0 0 0 0 0 0 0 0
0 0 0 0 0 0 0 0 0 0 0 0 0 0 0 0 0 0 0 0 0 0 0 0 0 0 0 0 0 0 0 0 0 0 0 0 0 0
0 0 0 0 0 0 0 0 0 0 0 0 0 0 0 0 0 0 0 0 0 0 0 0 0 0 0 0 0 0 0 0 0 0 0 0 0 0
0 0 0 0 0 0 0 0 0 0 0 0 0 0 0 0 0 0 0 0 0 0 0 0 0 0 0 0 0 0 0 0 0 0 0 0 0 0
0 0 0 0 0 0 0 0 0 0 0 0 0 0 0 0 0 0 0 0 0 0 0 0 0 0 0 0 0 0 0 0 0 0 0 0 0 0
0 0 0 0 0 0 0 0 0 0 0 0 0 0 0 0 0 0 0 0 0 0 0 0 0 0 0 0 0 0 0 0 0 0 0 0 0 0
0 0 0 0 0 0 0 0 0 0 0 0 0 0 0 0 0 0 0 0 0 0 0 0 0 0 0 0 0 0 0 0 0 0 0 0 0 0
0 0 0 0 0 0 0 0 0 0 0 0 0 0 0 0 0 0 0 0 0 0 0 0 0 0 0 0 0 0 0 0 0 0 0 0 0 0
0 0 0 0 0 0 0 0 0 0 0 0 0 0 0 0 0 0 0 0 0 0 0 0 0 0 0 0 0 0 0 0 0 0 0 0 0 0
0 0 0 0 0 0 0 0 0 0 0 0 0 0 0 0 0 0 0 0 0 0 0 0 0 0 0 0 0 0 0 0 0 0 0 0 0 0
0 0 0 0 0 0 0 0 0 0 0 0 0 0 0 0 0 0 0 0 0 0 0 0 0 0 0 0 0 0 0 0 0 0 0 0 0 0
0 0 0 0 0 0 0 0 0 0 0 0 0 0 0 0 0 0 0 0 0 0 0 0 0 0 0 0 0 0 0 0 0 0 0 0 0 0
0 0 0 0 0 0 0 0 0 0 0 0 0 0 0 0 0 0 0 0 0 0 0 0 0 0 0 0 0 0 0 0 0 0 0 0 0 0
0 0 0 0 0 0 0 0 0 0 0 0 0 0 0 0 0 0 0 0 0 0 0 0 0 0 0 0 0 0 0 0 0 0 0 0 0 0
Wind_Speed
5 5 4 3 3 3 4 4 4 5 5 4 3 4 4 4 5 5 6 6 7 7 7 7 7 6 6 6 6 6 6 6 6 6 5 5 5 6
4 5 5 4 4 4 4 4 5 5 5 3 4 3 4 4 5 6 6 7 8 8 8 8 8 7 7 7 7 7 7 7 7 6 6 6 6 6
5 5 6 5 4 4 4 4 5 5 6 5 3 4 6 5 5 6 6 6 6 8 8 8 8 8 8 7 7 7 7 7 7 7 8 7 7 7
6 6 6 5 6 5 5 5 5 5 5 6 5 5 6 6 6 7 6 5 6 7 9 9 9 9 9 8 8 8 8 8 7 7 8 8 8 8
6 7 6 6 6 5 6 5 5 5 5 5 5 4 5 5 6 6 6 6 6 7 9 10 10 10 10 9 9 9 9 8 8 8 8 8 8 9
7 7 7 7 7 7 6 6 5 5 5 5 5 5 5 5 5 6 6 6 6 5 7 8 9 10 10 10 10 9 9 9 9 9 9 8 8 9
7 7 8 9 9 8 6 6 6 6 6 6 6 6 6 5 6 5 6 5 5 5 5 6 6 6 7 9 10 10 10 10 10 10 9 9 9 9
7 7 7 8 10 11 12 11 10 9 8 7 7 8 8 7 6 6 6 5 5 4 5 5 5 6 6 6 8 10 10 11 10 10 10 10 10 9
7 7 6 7 9 8 10 11 12 14 13 10 9 9 9 8 8 8 8 7 6 4 4 6 5 6 5 6 10 11 10 10 11 10 11 11 10 9
8 8 8 8 7 8 8 8 9 10 11 9 9 9 8 8 8 8 8 7 5 5 5 5 5 5 5 5 10 11 11 10 11 11 11 11 10 10
8 8 9 8 10 11 9 9 9 9 10 12 13 12 12 12 9 6 6 6 6 5 5 5 4 4 5 6 7 10 10 10 11 11 11 11 10 10
6 7 10 11 12 12 9 9 10 9 8 8 9 10 10 11 13 10 8 8 6 5 5 5 4 3 4 4 4 5 6 9 11 12 12 11 10 7
5 5 6 11 13 12 11 9 10 9 8 8 7 7 7 7 8 8 8 8 7 5 5 5 4 4 4 3 4 5 5 5 6 7 10 12 11 9
6 5 6 10 12 12 10 10 11 9 6 6 6 7 7 7 6 7 7 7 7 6 6 7 5 6 5 5 5 4 4 5 5 5 5 8 10 12
6 9 10 11 11 9 10 11 9 6 5 6 7 7 6 6 4 4 4 4 4 4 6 7 7 6 6 6 5 5 4 5 5 5 5 5 6 6
6 8 11 11 9 8 7 6 5 5 5 6 6 5 4 4 5 5 4 4 4 4 5 6 7 7 7 7 6 6 5 5 5 5 5 5 5 6
6 4 4 4 4 4 4 4 4 4 5 5 5 4 4 5 5 4 4 5 5 5 4 4 4 4 6 6 6 7 6 5 5 5 5 6 6 6
5 4 4 4 4 4 4 4 4 4 5 5 4 5 5 5 5 4 5 6 6 6 5 4 4 3 3 5 8 8 6 6 5 4 5 6 6 6
4 3 4 4 4 4 4 4 4 4 4 4 4 5 5 5 5 5 5 6 6 6 5 5 5 5 6 6 5 8 6 5 4 5 5 6 6 6
3 4 4 4 4 4 4 4 4 4 4 4 4 4 4 5 5 5 6 6 6 5 5 5 6 7 7 5 3 4 8 7 5 5 5 4 5 6
4 4 4 4 4 4 4 4 4 4 4 4 4 5 4 5 5 5 6 7 7 6 7 6 6 6 3 2 3 4 4 8 8 5 4 4 5 5
4 4 4 4 4 4 4 4 4 4 4 4 4 4 4 4 5 6 6 6 6 6 6 4 3 4 5 6 6 5 5 4 5 8 9 8 5 5
5 5 5 5 4 4 4 4 5 4 4 4 4 4 4 4 4 5 5 5 5 5 5 4 4 4 5 6 5 5 5 4 3 3 4 7 9 10
Wind_Direction
233 235 239 240 237 239 238 233 235 245 243 235 233 218 224 230 237 237 238 234 239 244 249 251 250 250 251 254 254 257 260 254 252 254 254 254 261 271
232 235 238 238 234 235 235 236 242 249 253 239 241 232 224 228 235 239 243 242 241 241 244 248 248 249 247 246 248 252 254 252 247 244 248 254 259 267
233 235 240 241 239 234 233 233 235 242 253 261 255 240 231 231 232 233 236 238 236 238 240 240 241 244 246 247 248 249 246 244 242 239 245 250 256 260
238 238 242 241 243 239 234 233 235 236 245 254 254 244 240 236 237 235 233 235 237 235 240 240 239 238 241 244 244 245 243 242 239 241 245 248 251 257
245 239 240 238 244 243 237 237 238 238 241 247 249 250 248 239 238 239 237 236 238 237 236 235 235 237 239 241 241 242 239 237 238 240 243 247 253 257
251 245 242 239 241 243 241 240 239 238 237 240 245 243 242 238 237 234 236 231 235 235 235 237 236 237 238 239 238 240 235 233 237 241 243 245 252 257
253 251 245 245 245 247 242 238 235 234 234 235 242 241 236 230 233 233 239 238 239 229 233 233 232 232 230 231 233 234 239 235 235 237 240 245 250 255
253 256 252 248 248 252 250 246 241 236 233 234 240 240 238 237 237 233 234 236 242 215 231 239 230 235 235 233 232 235 240 237 233 234 238 244 248 250
253 254 254 250 251 251 248 250 248 246 242 239 241 244 243 235 233 234 234 236 246 227 229 242 232 240 236 234 234 235 236 239 236 237 240 243 245 247
254 252 253 251 248 251 249 250 251 246 243 242 244 250 251 243 235 239 239 244 255 235 221 244 236 244 243 238 231 231 236 241 243 243 244 244 246 251
258 255 253 252 251 251 249 249 254 255 250 249 252 250 249 245 238 232 228 228 240 234 222 232 236 253 252 242 229 230 237 242 244 241 242 244 248 252
265 260 254 254 255 251 247 246 249 253 253 250 247 245 243 239 234 230 227 229 231 233 209 213 219 227 249 238 227 225 231 241 246 243 243 242 244 246
272 267 260 260 259 254 254 250 253 255 252 247 245 242 239 235 230 231 229 226 226 233 204 203 216 221 231 245 245 236 234 238 243 242 241 241 241 242
272 275 271 268 263 260 259 262 261 258 250 246 241 237 236 235 233 233 234 238 239 235 218 209 221 220 223 238 244 236 234 240 245 248 246 240 239 243
274 278 279 275 269 262 262 266 260 251 246 245 245 241 240 239 232 230 233 234 240 237 226 231 226 223 226 233 236 236 245 244 239 240 246 244 243 239
280 275 272 271 271 271 267 263 258 255 250 249 250 248 241 229 224 219 223 217 227 239 231 231 231 223 231 238 235 238 236 233 231 241 249 250 246 242
293 283 278 272 270 271 270 268 266 260 255 254 249 242 234 232 229 221 219 218 227 232 230 219 221 228 241 239 235 235 235 241 238 235 238 248 248 242
293 282 282 284 283 281 277 274 271 267 260 257 250 243 236 234 233 228 220 220 225 228 228 218 206 212 233 248 231 236 238 241 240 241 241 246 253 249
282 278 277 278 280 282 283 280 276 277 270 257 250 244 242 240 235 229 224 223 226 229 228 216 210 213 229 245 227 216 230 237 240 242 242 245 253 255
291 283 280 281 281 282 281 282 282 282 274 263 255 247 241 238 235 233 227 224 225 227 229 223 218 217 226 241 245 232 223 230 234 242 248 257 265 264
299 294 288 283 283 283 281 280 280 277 277 272 261 253 244 239 237 235 232 229 230 228 230 231 226 219 227 222 234 239 234 231 238 241 241 251 261 256
295 293 291 287 282 281 282 282 280 279 276 269 265 259 252 246 243 239 233 229 229 231 238 235 209 206 212 217 229 240 249 248 248 252 253 246 238 238
289 288 287 285 280 278 277 277 278 277 276 275 271 263 252 250 249 244 238 233 231 227 225 226 222 217 218 220 229 236 242 245 243 249 255 250 246 253